Regional Weather Roundup
Issued by NWS San Diego, CA

Home | Current Version | Previous Version | Text Only | Print | Product List | Glossary On
Versions: 1 2 3 4 5 6 7 8 9 10 11 12 13 14 15 16 17 18 19 20 21 22 23 24 25 26 27 28 29 30 31 32 33 34 35 36 37 38 39 40 41 42 43 44 45 46 47 48 49 50
000
ASUS46 KSGX 260704
RWRSGX

SAN DIEGO HOURLY WEATHER ROUNDUP
NATIONAL WEATHER SERVICE SAN DIEGO CA
1200 AM PDT WED APR 26 2017

NOTE: "FAIR" INDICATES FEW OR NO CLOUDS BELOW 12,000 FEET WITH NO
SIGNIFICANT WEATHER AND/OR OBSTRUCTIONS TO VISIBILITY.

CAZ042-043-060-061-PZZ750-775-260800-

GREATER SAN DIEGO AREA

CITY           SKY/WX    TMP DP  RH WIND       PRES   REMARKS
SAN DIEGO AP   MOCLDY    62  56  80 SE5       29.93F
NATIONAL CITY    N/A     62  56  82 CALM      29.92F
CHULA VISTA      N/A     59  55  88 CALM      29.85S
IMPERIAL BEACH PTCLDY   N/A N/A N/A S5        29.93F
BROWN FIELD    PTCLDY    57  54  89 CALM      29.92F
MIRAMAR MCAS   PTCLDY    57  48  72 E5        29.92F
MONTGOMERY FLD PTCLDY    57  52  83 SE3       29.92F

$$

NORTH SAN DIEGO COUNTY

CITY           SKY/WX    TMP DP  RH WIND       PRES   REMARKS
CAMP PENDLETON MOCLDY    53  50  89 CALM      29.93S
OCEANSIDE AP   MOCLDY    55  52  89 CALM      29.92S
OCEANSIDE HBR    N/A     58  53  83 N1        29.95S
VISTA            N/A     56  51  83 CALM      29.90F
CARLSBAD       MOCLDY    60  52  74 CALM      29.92S
DEL MAR          N/A     57  55  92 CALM      29.94F
LA JOLLA SCRIP   N/A     59  56  89 E3        29.92F
FALLBROOK        N/A     55  54  95 CALM      29.90S
ESCONDIDO        N/A     59  49  70 CALM      29.94S
SAN MARCOS       N/A     56  49  77 CALM      29.94S
POWAY            N/A     54  47  76 CALM      29.94S

$$

EAST SAN DIEGO COUNTY

CITY           SKY/WX    TMP DP  RH WIND       PRES   REMARKS
RAMONA         MOCLDY    51  47  86 CALM      29.93F
SANTEE LAKES     N/A     54  48  80 CALM      29.91F
LA MESA          N/A     57  54  89 CALM      29.86S
JAMUL            N/A     52  48  85 CALM      29.92F
DESCANSO N       N/A     46  43  86 NE3       29.89F
MT. LAGUNA OBS   N/A     59  25  27 NW2       29.62S
CAMPO            N/A     45  44  97 NE7       29.92S

$$

ORANGE COUNTY AND THE LOS ANGELES BASIN

CITY           SKY/WX    TMP DP  RH WIND       PRES   REMARKS
JOHN WAYNE AP  PTCLDY    61  53  75 S5        29.91S
LAGUNA BEACH     N/A    N/A N/A N/A CALM      29.87S
LAKE FOREST FR   N/A     56  47  74 CALM      29.81R
HUNTINGTON BCH   N/A     59  56  88 CALM      29.91F
LOS ALAMITOS   FAIR      60  54  79 SE6       29.90F
FULLERTON      PTCLDY    63  52  67 SE6       29.90S
LONG BEACH     PTCLDY    62  51  67 SE7       29.90S
L.A. AP        MOCLDY    70  36  28 NW13      29.89R
L.A. DOWNTOWN  PTCLDY    69  41  36 SE3       29.89S

$$

THE INLAND EMPIRE

CITY           SKY/WX    TMP DP  RH WIND       PRES   REMARKS
CORONA         PTCLDY    52  45  77 CALM      29.91F
CHINO          PTCLDY    60  47  61 CALM      29.91F
ONTARIO        MOCLDY    61  44  53 W5        29.90F
SAN BERNARDINO FAIR      60  42  51 E5        29.92S
RIVERSIDE AP   PTCLDY    61  46  57 CALM      29.91F
MORENO VALLEY    N/A     55  49  80 CALM      28.04S
MARCH ARB      MOCLDY    53  43  67 CALM      29.92F
HORSETHIEF CYN   N/A     57  45  64 S3        29.92F
PERRIS           N/A     56  48  76 SE3       29.94S
HEMET EAST       N/A     55  46  69 CALM      29.97F
FRENCH VALLEY  FAIR      54  45  71 CALM      29.94S
TEMECULA         N/A     57  50  76 CALM      29.97F

$$

SAN BERNARDINO AND RIVERSIDE COUNTY MOUNTAINS

CITY           SKY/WX    TMP DP  RH WIND       PRES   REMARKS
BIG BEAR AP    PTCLDY    37  28  70 CALM      30.08S

$$

SOUTHERN DESERT INCLUDING THE COACHELLA VALLEY

CITY           SKY/WX    TMP DP  RH WIND       PRES   REMARKS
PALM SPRINGS   PTCLDY    73  45  36 NW9G20    29.83F
PALM DESERT      N/A     71  47  42 CALM        N/A
THERMAL        MOCLDY    73  45  36 NW12      29.79R
BLYTHE         MOCLDY    73  32  22 NW10      29.79R
IMPERIAL AP    PTCLDY    65  49  56 W8        29.79S
EL CENTRO NAS  PTCLDY    67  44  43 W9        29.81S
YUMA AZ        MOCLDY    71  48  43 W12       29.80R
MEXICALI       PTCLDY    70  46  43 W8        29.81R

$$

UPPER DESERT

CITY           SKY/WX    TMP DP  RH WIND       PRES   REMARKS
VICTORVILLE AP PTCLDY    54  34  47 W15       29.99S
HESPERIA         N/A     52  33  47 CALM      30.09S
PALMDALE       PTCLDY    56  37  49 W22       30.00F
LANCASTER      PTCLDY    57  36  45 W21G26    29.99R
EDWARDS AFB    MOCLDY    57  37  46 W16       29.93S
DAGGETT        CLEAR     61  34  36 SW20      29.94R
29 PALMS N     PTCLDY    62  31  31 N14G23    29.98S
NEEDLES        CLEAR     74  17  11 W12       29.81R

$$

REGIONAL REPORTS

CITY           SKY/WX    TMP DP  RH WIND       PRES   REMARKS
SANTA BARBARA  CLEAR     60  47  61 NW12      29.93F
SANDBERG       PTCLDY    48  36  63 N17G30    30.08S
LAS VEGAS NV   PTCLDY    67  14  13 S5        29.86S
PHOENIX AZ     PTCLDY    76  29  17 W12       29.77R
TIJUANA          N/A    N/A N/A N/A MISG        N/A
ENSENADA NW      N/A     60  32  35 CALM      29.90F

$$

OFFSHORE ISLANDS

CITY           SKY/WX    TMP DP  RH WIND       PRES   REMARKS
CATALINA ARPT  PTCLDY    60  43  53 NW9       29.94F
SAN NICOLAS IS PTCLDY   N/A N/A N/A NW33G41     N/A

$$

MARINE AND OFFSHORE BUOY REPORTS

STATION/POSITION SKY/WX   TEMP    WIND        PRES    VSBY  SWELL
                          AIR SEA DIR/SP/G                  HT/PER/DIR
                          (F)     (DEG/KT/KT) (MB)    (MI)  (FT/S/D)
TANNER BANKS               58 57  320/ 27/ 33 1014.0          5/330/11
S CLEMENTE BASIN           60 62  300/ 16/ 17 1013.0          8/300/ 8
SAN NICOLAS IS.               55                N/A           5/300/11
SO. S. ROSA ISLA           55 54  310/ 23/ 31 1015.5          7/290/11
W. S. BARBARA CH           54 51  330/ 23/ 29 1016.0          5/290/11
M. S. BARBARA CH                                N/A           5/250/ 8
S. MONICA BASIN            60 60  310/ 12/ 14 1012.5F         7/270/ 8
S PEDRO CHANNEL               58                N/A           2/270/11
CMP PENDLETON NS              63                N/A           3/210/18
OCEANSIDE OFFSHR              63                N/A           3/180/17
TORREY PINES OTR              64                N/A           3/280/11
POINT LOMA SOUTH              60                N/A           3/270/11

$$




USA.gov is the U.S. government's official web portal to all federal, state and local government web resources and services.